Flag for U.S.A. Weather past 2 weeks in Vancouver, Washington, U.S.A.

Now
71 °F

Sunny.


Feels Like: 77 °F
Forecast: 47 / 66 °F
Wind: 6 mph from West

Location: Vancouver - Pearson Airpark

Current Time: Mar 26, 2015 at 5:47:55 PM

Latest Report: Mar 26, 2015 at 4:53 PM


Visibility: 10 mi

Pressure: 30.14 "Hg

Humidity: 45%

Dew point: 49 °F

Location of VancouverLocation

Historic Weather in Vancouver — Graph

°F

Vancouver temperature yesterday

Maximum temperature yesterday: 59 °F (at 2:53 PM)
Minimum temperature yesterday: 47 °F (at 2:53 AM)
Average temperature yesterday: 52 °F

Past Weeks' High & Low Weather Summary

 TemperatureHumidityPressure
High71 °F (Mar 26, 4:53 PM)100% (Mar 26, 10:53 AM)30.44 "Hg (Mar 26, 10:53 AM)
Low36 °F (Mar 16, 4:53 AM)33% (Mar 20, 3:53 PM)29.67 "Hg (Mar 15, 11:53 AM)
Average52 °F78%30.11 "Hg
* Reported Mar 11 4:53 PM — Mar 26 4:53 PM, Vancouver, Weather by CustomWeather, © 2015

Note: Actual official high and low records may vary slightly from our data, if they occured in-between our weather recording intervals... More about our weather records

Advertising

Vancouver weather history for previous 24 hours

 ConditionsComfort  
Time TempWeatherWind HumidityBarometerVisibility
4:53 PM
Thu, Mar 26
71 °FSunny.6 mph45%30.14 "Hg10 mi
3:53 PM70 °FSunny.3 mph42%30.16 "Hg10 mi
2:53 PM66 °FSunny.5 mph54%30.18 "Hg10 mi
1:53 PM62 °FSunny.6 mph67%30.22 "Hg10 mi
12:53 PM59 °FSunny.5 mph78%30.24 "Hg10 mi
11:53 AM53 °FLow clouds.3 mph89%30.26 "Hg10 mi
11:04 AM50 °FFog.No wind96%30.27 "Hg5 mi
10:53 AM50 °FFog.No wind100%30.27 "Hg2 mi
10:00 AM50 °FFog.No wind96%30.28 "Hg2 mi
8:53 AM50 °FFog.No wind96%30.28 "Hg0 mi
7:53 AM49 °FFog.No wind97%30.28 "Hg5 mi
6:53 AM48 °FLow clouds.No wind96%30.27 "Hg8 mi
6:01 AM47 °FFog.No wind97%30.28 "Hg1 mi
4:53 AM45 °FFog.No wind97%30.29 "Hg0 mi
4:00 AM46 °FFog.No wind96%30.30 "Hg1 mi
3:53 AM46 °FFog.No wind96%30.29 "Hg0 mi
2:53 AM48 °FFog.No wind96%30.30 "Hg1 mi
2:02 AM50 °FFog.No wind93%30.31 "Hg1 mi
1:53 AM49 °FFog.No wind97%30.31 "Hg0 mi
12:53 AM48 °FFog.No wind93%30.32 "Hg0 mi
12:03 AM50 °FFog.No wind93%30.32 "Hg1 mi
11:53 PM
Wed, Mar 25
49 °FFog.No wind93%30.33 "Hg1 mi
10:53 PM51 °FFog.No wind96%30.34 "Hg5 mi
9:53 PM50 °FClear.No wind96%30.33 "Hg7 mi
8:53 PM52 °FClear.No wind97%30.32 "Hg10 mi
7:53 PM55 °FScattered clouds.No wind93%30.31 "Hg10 mi
6:53 PM59 °FOvercast.No wind81%30.32 "Hg10 mi
5:53 PM59 °FMore clouds than sun.3 mph81%30.32 "Hg10 mi
Weather by CustomWeather, © 2015

See weather overviewHow to use our weather pages